Location: Huntsville
(41.2590°N, 111.7678°W)
Time: 22:12:29
(UTC+00:00)

SR - Pass Details

Date: 19 June 2021
Orbit: 577 x 878 km, 66.7° (Epoch: 28 July)

Event Time Altitude Azimuth Distance (km) Brightness Sun altitude
Rises 09:25:11 0° 325° (NW) 3,266 ? -19.9°
Reaches altitude 10° 09:27:44 10° 321° (NW) 2,286 ? -19.7°
Maximum altitude 09:32:47 53° 246° (WSW) 868 ? -19.2°
Enters shadow 09:34:12 39° 195° (SSW) 1,038 ? -19.0°
